Data supplied by UK-AIR on 5/4/2008
All Data GMT hour ending 
Status: R =Ratified P=Provisional,P*=As supplied
,,Exeter Roadside,,,,,,,,,,,,,,,,,,,,,,,
Date,time,"Carbon monoxide",status,unit,"Nitric oxide",status,unit,"Nitrogen dioxide",status,unit,"Nitrogen oxides as nitrogen dioxide",status,unit,"Ozone",status,unit,"Sulphur dioxide",status,unit
 
01-01-1999,01:00,,,,,,,,,,,,,,,,,,
01-01-1999,02:00,0.6,R,mgm-3,8,R,ugm-3,36,R,ugm-3,48,R,ugm-3,,,,3,R,ugm-3
01-01-1999,03:00,0.5,R,mgm-3,6,R,ugm-3,34,R,ugm-3,44,R,ugm-3,,,,3,R,ugm-3
01-01-1999,04:00,0.2,R,mgm-3,0,R,ugm-3,27,R,ugm-3,27,R,ugm-3,,,,3,R,ugm-3
01-01-1999,05:00,0.1,R,mgm-3,1,R,ugm-3,17,R,ugm-3,19,R,ugm-3,,,,3,R,ugm-3
01-01-1999,06:00,0.2,R,mgm-3,1,R,ugm-3,21,R,ugm-3,23,R,ugm-3,,,,3,R,ugm-3
01-01-1999,07:00,0.1,R,mgm-3,11,R,ugm-3,27,R,ugm-3,44,R,ugm-3,,,,3,R,ugm-3
01-01-1999,08:00,0.3,R,mgm-3,5,R,ugm-3,38,R,ugm-3,46,R,ugm-3,,,,3,R,ugm-3
01-01-1999,09:00,0.2,R,mgm-3,5,R,ugm-3,34,R,ugm-3,42,R,ugm-3,,,,3,R,ugm-3
01-01-1999,10:00,0.2,R,mgm-3,5,R,ugm-3,31,R,ugm-3,38,R,ugm-3,,,,3,R,ugm-3
01-01-1999,11:00,0.3,R,mgm-3,5,R,ugm-3,29,R,ugm-3,36,R,ugm-3,,,,3,R,ugm-3
01-01-1999,12:00,0.6,R,mgm-3,9,R,ugm-3,36,R,ugm-3,50,R,ugm-3,,,,3,R,ugm-3
01-01-1999,13:00,0.7,R,mgm-3,10,R,ugm-3,36,R,ugm-3,52,R,ugm-3,,,,3,R,ugm-3
01-01-1999,14:00,0.6,R,mgm-3,9,R,ugm-3,36,R,ugm-3,50,R,ugm-3,,,,3,R,ugm-3
01-01-1999,15:00,1.4,R,mgm-3,20,R,ugm-3,46,R,ugm-3,76,R,ugm-3,,,,3,R,ugm-3
01-01-1999,16:00,1.3,R,mgm-3,15,R,ugm-3,42,R,ugm-3,65,R,ugm-3,,,,3,R,ugm-3
01-01-1999,17:00,1.4,R,mgm-3,14,R,ugm-3,38,R,ugm-3,59,R,ugm-3,,,,3,R,ugm-3
01-01-1999,18:00,0.9,R,mgm-3,8,R,ugm-3,34,R,ugm-3,46,R,ugm-3,,,,3,R,ugm-3
01-01-1999,19:00,0.3,R,mgm-3,1,R,ugm-3,25,R,ugm-3,27,R,ugm-3,,,,3,R,ugm-3
01-01-1999,20:00,0.2,R,mgm-3,3,R,ugm-3,19,R,ugm-3,23,R,ugm-3,,,,3,R,ugm-3
01-01-1999,21:00,0.1,R,mgm-3,1,R,ugm-3,19,R,ugm-3,21,R,ugm-3,,,,3,R,ugm-3
01-01-1999,22:00,0.2,R,mgm-3,0,R,ugm-3,19,R,ugm-3,19,R,ugm-3,,,,3,R,ugm-3
01-01-1999,23:00,0.1,R,mgm-3,1,R,ugm-3,15,R,ugm-3,17,R,ugm-3,,,,3,R,ugm-3
01-01-1999,24:00,0.1,R,mgm-3,4,R,ugm-3,10,R,ugm-3,15,R,ugm-3,,,,3,R,ugm-3
02-01-1999,01:00,0.2,R,mgm-3,0,R,ugm-3,10,R,ugm-3,10,R,ugm-3,,,,3,R,ugm-3
02-01-1999,02:00,0.1,R,mgm-3,0,R,ugm-3,10,R,ugm-3,10,R,ugm-3,,,,3,R,ugm-3
02-01-1999,03:00,0.2,R,mgm-3,0,R,ugm-3,10,R,ugm-3,10,R,ugm-3,,,,3,R,ugm-3
02-01-1999,04:00,0.1,R,mgm-3,0,R,ugm-3,10,R,ugm-3,10,R,ugm-3,,,,3,R,ugm-3
02-01-1999,05:00,0.1,R,mgm-3,0,R,ugm-3,10,R,ugm-3,10,R,ugm-3,,,,3,R,ugm-3
02-01-1999,06:00,0.2,R,mgm-3,1,R,ugm-3,11,R,ugm-3,13,R,ugm-3,,,,3,R,ugm-3
02-01-1999,07:00,0.2,R,mgm-3,1,R,ugm-3,15,R,ugm-3,17,R,ugm-3,,,,3,R,ugm-3
02-01-1999,08:00,0.2,R,mgm-3,6,R,ugm-3,21,R,ugm-3,31,R,ugm-3,,,,3,R,ugm-3
02-01-1999,09:00,0.8,R,mgm-3,19,R,ugm-3,38,R,ugm-3,67,R,ugm-3,,,,3,R,ugm-3
02-01-1999,10:00,1.3,R,mgm-3,24,R,ugm-3,46,R,ugm-3,82,R,ugm-3,,,,3,R,ugm-3
02-01-1999,11:00,2.0,R,mgm-3,29,R,ugm-3,48,R,ugm-3,92,R,ugm-3,,,,3,R,ugm-3
02-01-1999,12:00,2.0,R,mgm-3,34,R,ugm-3,48,R,ugm-3,99,R,ugm-3,,,,3,R,ugm-3
02-01-1999,13:00,2.3,R,mgm-3,35,R,ugm-3,52,R,ugm-3,105,R,ugm-3,,,,3,R,ugm-3
02-01-1999,14:00,2.3,R,mgm-3,35,R,ugm-3,50,R,ugm-3,103,R,ugm-3,,,,3,R,ugm-3
02-01-1999,15:00,2.4,R,mgm-3,46,R,ugm-3,50,R,ugm-3,120,R,ugm-3,,,,3,R,ugm-3
02-01-1999,16:00,2.0,R,mgm-3,44,R,ugm-3,55,R,ugm-3,122,R,ugm-3,,,,3,R,ugm-3
02-01-1999,17:00,2.0,R,mgm-3,40,R,ugm-3,53,R,ugm-3,115,R,ugm-3,,,,3,R,ugm-3
02-01-1999,18:00,2.1,R,mgm-3,55,R,ugm-3,63,R,ugm-3,147,R,ugm-3,,,,3,R,ugm-3
02-01-1999,19:00,2.7,R,mgm-3,71,R,ugm-3,61,R,ugm-3,170,R,ugm-3,,,,5,R,ugm-3
02-01-1999,20:00,0.3,R,mgm-3,9,R,ugm-3,31,R,ugm-3,44,R,ugm-3,,,,3,R,ugm-3
02-01-1999,21:00,0.3,R,mgm-3,10,R,ugm-3,27,R,ugm-3,42,R,ugm-3,,,,3,R,ugm-3
02-01-1999,22:00,0.3,R,mgm-3,9,R,ugm-3,29,R,ugm-3,42,R,ugm-3,,,,3,R,ugm-3
02-01-1999,23:00,0.1,R,mgm-3,5,R,ugm-3,21,R,ugm-3,29,R,ugm-3,,,,0,R,ugm-3
02-01-1999,24:00,0.5,R,mgm-3,6,R,ugm-3,29,R,ugm-3,38,R,ugm-3,,,,3,R,ugm-3
03-01-1999,01:00,0.1,R,mgm-3,1,R,ugm-3,23,R,ugm-3,25,R,ugm-3,,,,3,R,ugm-3
03-01-1999,02:00,0.2,R,mgm-3,3,R,ugm-3,25,R,ugm-3,29,R,ugm-3,,,,3,R,ugm-3
03-01-1999,03:00,0.1,R,mgm-3,0,R,ugm-3,15,R,ugm-3,15,R,ugm-3,,,,3,R,ugm-3
03-01-1999,04:00,0.0,R,mgm-3,0,R,ugm-3,10,R,ugm-3,10,R,ugm-3,,,,0,R,ugm-3
03-01-1999,05:00,0.1,R,mgm-3,0,R,ugm-3,10,R,ugm-3,10,R,ugm-3,,,,3,R,ugm-3
03-01-1999,06:00,0.1,R,mgm-3,0,R,ugm-3,10,R,ugm-3,10,R,ugm-3,,,,3,R,ugm-3
03-01-1999,07:00,0.1,R,mgm-3,0,R,ugm-3,10,R,ugm-3,10,R,ugm-3,,,,3,R,ugm-3
03-01-1999,08:00,0.2,R,mgm-3,1,R,ugm-3,13,R,ugm-3,15,R,ugm-3,,,,3,R,ugm-3
03-01-1999,09:00,0.1,R,mgm-3,1,R,ugm-3,11,R,ugm-3,13,R,ugm-3,,,,3,R,ugm-3
03-01-1999,10:00,0.2,R,mgm-3,4,R,ugm-3,17,R,ugm-3,23,R,ugm-3,,,,3,R,ugm-3
03-01-1999,11:00,0.1,R,mgm-3,5,R,ugm-3,15,R,ugm-3,23,R,ugm-3,,,,3,R,ugm-3
03-01-1999,12:00,0.3,R,mgm-3,9,R,ugm-3,27,R,ugm-3,40,R,ugm-3,,,,3,R,ugm-3
03-01-1999,13:00,0.5,R,mgm-3,16,R,ugm-3,29,R,ugm-3,53,R,ugm-3,,,,3,R,ugm-3
03-01-1999,14:00,0.5,R,mgm-3,11,R,ugm-3,27,R,ugm-3,44,R,ugm-3,,,,3,R,ugm-3
03-01-1999,15:00,1.5,R,mgm-3,30,R,ugm-3,50,R,ugm-3,96,R,ugm-3,,,,3,R,ugm-3
03-01-1999,16:00,2.0,R,mgm-3,40,R,ugm-3,53,R,ugm-3,115,R,ugm-3,,,,3,R,ugm-3
03-01-1999,17:00,2.7,R,mgm-3,74,R,ugm-3,82,R,ugm-3,195,R,ugm-3,,,,3,R,ugm-3
03-01-1999,18:00,1.4,R,mgm-3,18,R,ugm-3,57,R,ugm-3,84,R,ugm-3,,,,3,R,ugm-3
03-01-1999,19:00,0.3,R,mgm-3,4,R,ugm-3,29,R,ugm-3,34,R,ugm-3,,,,3,R,ugm-3
03-01-1999,20:00,0.3,R,mgm-3,4,R,ugm-3,21,R,ugm-3,27,R,ugm-3,,,,3,R,ugm-3
03-01-1999,21:00,0.2,R,mgm-3,3,R,ugm-3,25,R,ugm-3,29,R,ugm-3,,,,3,R,ugm-3
03-01-1999,22:00,0.3,R,mgm-3,4,R,ugm-3,27,R,ugm-3,32,R,ugm-3,,,,3,R,ugm-3
03-01-1999,23:00,0.2,R,mgm-3,0,R,ugm-3,21,R,ugm-3,21,R,ugm-3,,,,3,R,ugm-3
03-01-1999,24:00,0.2,R,mgm-3,0,R,ugm-3,11,R,ugm-3,11,R,ugm-3,,,,3,R,ugm-3
04-01-1999,01:00,0.0,R,mgm-3,0,R,ugm-3,10,R,ugm-3,10,R,ugm-3,,,,0,R,ugm-3
04-01-1999,02:00,0.0,R,mgm-3,0,R,ugm-3,10,R,ugm-3,10,R,ugm-3,,,,0,R,ugm-3
04-01-1999,03:00,0.0,R,mgm-3,0,R,ugm-3,10,R,ugm-3,10,R,ugm-3,,,,0,R,ugm-3
04-01-1999,04:00,0.1,R,mgm-3,0,R,ugm-3,10,R,ugm-3,10,R,ugm-3,,,,0,R,ugm-3
04-01-1999,05:00,0.1,R,mgm-3,0,R,ugm-3,10,R,ugm-3,10,R,ugm-3,,,,3,R,ugm-3
04-01-1999,06:00,0.1,R,mgm-3,0,R,ugm-3,10,R,ugm-3,10,R,ugm-3,,,,0,R,ugm-3
04-01-1999,07:00,0.2,R,mgm-3,5,R,ugm-3,17,R,ugm-3,25,R,ugm-3,,,,0,R,ugm-3
04-01-1999,08:00,0.6,R,mgm-3,11,R,ugm-3,32,R,ugm-3,50,R,ugm-3,,,,3,R,ugm-3
04-01-1999,09:00,1.6,R,mgm-3,35,R,ugm-3,53,R,ugm-3,107,R,ugm-3,,,,3,R,ugm-3
04-01-1999,10:00,1.5,R,mgm-3,31,R,ugm-3,46,R,ugm-3,94,R,ugm-3,,,,3,R,ugm-3
04-01-1999,11:00,1.9,R,mgm-3,41,R,ugm-3,57,R,ugm-3,120,R,ugm-3,,,,3,R,ugm-3
04-01-1999,12:00,2.0,R,mgm-3,41,R,ugm-3,53,R,ugm-3,117,R,ugm-3,,,,3,R,ugm-3
04-01-1999,13:00,1.6,R,mgm-3,38,R,ugm-3,53,R,ugm-3,111,R,ugm-3,,,,3,R,ugm-3
04-01-1999,14:00,1.3,R,mgm-3,29,R,ugm-3,46,R,ugm-3,90,R,ugm-3,,,,3,R,ugm-3
04-01-1999,15:00,2.3,R,mgm-3,71,R,ugm-3,73,R,ugm-3,181,R,ugm-3,,,,5,R,ugm-3
04-01-1999,16:00,2.2,R,mgm-3,63,R,ugm-3,65,R,ugm-3,160,R,ugm-3,,,,3,R,ugm-3
04-01-1999,17:00,3.0,R,mgm-3,89,R,ugm-3,73,R,ugm-3,208,R,ugm-3,,,,5,R,ugm-3
04-01-1999,18:00,4.1,R,mgm-3,140,R,ugm-3,88,R,ugm-3,302,R,ugm-3,,,,8,R,ugm-3
04-01-1999,19:00,1.9,R,mgm-3,43,R,ugm-3,76,R,ugm-3,141,R,ugm-3,,,,3,R,ugm-3
04-01-1999,20:00,1.2,R,mgm-3,15,R,ugm-3,50,R,ugm-3,73,R,ugm-3,,,,3,R,ugm-3
04-01-1999,21:00,1.2,R,mgm-3,23,R,ugm-3,40,R,ugm-3,74,R,ugm-3,,,,3,R,ugm-3
04-01-1999,22:00,0.8,R,mgm-3,16,R,ugm-3,40,R,ugm-3,65,R,ugm-3,,,,3,R,ugm-3
04-01-1999,23:00,0.3,R,mgm-3,1,R,ugm-3,23,R,ugm-3,25,R,ugm-3,,,,3,R,ugm-3
04-01-1999,24:00,0.1,R,mgm-3,1,R,ugm-3,11,R,ugm-3,13,R,ugm-3,,,,3,R,ugm-3
05-01-1999,01:00,0.2,R,mgm-3,0,R,ugm-3,0,R,ugm-3,0,R,ugm-3,,,,3,R,ugm-3
05-01-1999,02:00,0.2,R,mgm-3,0,R,ugm-3,0,R,ugm-3,0,R,ugm-3,,,,0,R,ugm-3
05-01-1999,03:00,0.1,R,mgm-3,0,R,ugm-3,0,R,ugm-3,0,R,ugm-3,,,,0,R,ugm-3
05-01-1999,04:00,0.1,R,mgm-3,0,R,ugm-3,0,R,ugm-3,0,R,ugm-3,,,,3,R,ugm-3
05-01-1999,05:00,0.1,R,mgm-3,0,R,ugm-3,0,R,ugm-3,0,R,ugm-3,,,,3,R,ugm-3
05-01-1999,06:00,0.2,R,mgm-3,0,R,ugm-3,4,R,ugm-3,4,R,ugm-3,,,,3,R,ugm-3
05-01-1999,07:00,0.3,R,mgm-3,3,R,ugm-3,11,R,ugm-3,15,R,ugm-3,,,,3,R,ugm-3
05-01-1999,08:00,0.5,R,mgm-3,6,R,ugm-3,19,R,ugm-3,29,R,ugm-3,,,,3,R,ugm-3
05-01-1999,09:00,1.2,R,mgm-3,20,R,ugm-3,36,R,ugm-3,67,R,ugm-3,,,,3,R,ugm-3
05-01-1999,10:00,,,,,,,,,,,,,,,,,,
05-01-1999,11:00,0.8,R,mgm-3,18,R,ugm-3,32,R,ugm-3,59,R,ugm-3,,,,3,R,ugm-3
05-01-1999,12:00,1.3,R,mgm-3,24,R,ugm-3,36,R,ugm-3,73,R,ugm-3,,,,3,R,ugm-3
05-01-1999,13:00,1.5,R,mgm-3,20,R,ugm-3,32,R,ugm-3,63,R,ugm-3,,,,3,R,ugm-3
05-01-1999,14:00,1.5,R,mgm-3,19,R,ugm-3,29,R,ugm-3,57,R,ugm-3,,,,3,R,ugm-3
05-01-1999,15:00,1.7,R,mgm-3,25,R,ugm-3,36,R,ugm-3,74,R,ugm-3,,,,3,R,ugm-3
05-01-1999,16:00,1.9,R,mgm-3,36,R,ugm-3,42,R,ugm-3,97,R,ugm-3,,,,3,R,ugm-3
05-01-1999,17:00,2.1,R,mgm-3,39,R,ugm-3,53,R,ugm-3,113,R,ugm-3,,,,3,R,ugm-3
05-01-1999,18:00,2.2,R,mgm-3,40,R,ugm-3,53,R,ugm-3,115,R,ugm-3,,,,3,R,ugm-3
05-01-1999,19:00,1.3,R,mgm-3,13,R,ugm-3,31,R,ugm-3,50,R,ugm-3,,,,3,R,ugm-3
05-01-1999,20:00,1.2,R,mgm-3,6,R,ugm-3,31,R,ugm-3,40,R,ugm-3,,,,3,R,ugm-3
05-01-1999,21:00,0.7,R,mgm-3,4,R,ugm-3,21,R,ugm-3,27,R,ugm-3,,,,3,R,ugm-3
05-01-1999,22:00,0.8,R,mgm-3,10,R,ugm-3,29,R,ugm-3,44,R,ugm-3,,,,3,R,ugm-3
05-01-1999,23:00,0.7,R,mgm-3,6,R,ugm-3,25,R,ugm-3,34,R,ugm-3,,,,3,R,ugm-3
05-01-1999,24:00,0.6,R,mgm-3,5,R,ugm-3,17,R,ugm-3,25,R,ugm-3,,,,3,R,ugm-3
06-01-1999,01:00,0.2,R,mgm-3,0,R,ugm-3,10,R,ugm-3,10,R,ugm-3,,,,3,R,ugm-3
06-01-1999,02:00,0.2,R,mgm-3,0,R,ugm-3,10,R,ugm-3,10,R,ugm-3,,,,3,R,ugm-3
06-01-1999,03:00,0.1,R,mgm-3,0,R,ugm-3,11,R,ugm-3,11,R,ugm-3,,,,3,R,ugm-3
06-01-1999,04:00,0.1,R,mgm-3,0,R,ugm-3,10,R,ugm-3,10,R,ugm-3,,,,3,R,ugm-3
06-01-1999,05:00,0.1,R,mgm-3,1,R,ugm-3,8,R,ugm-3,10,R,ugm-3,,,,3,R,ugm-3
06-01-1999,06:00,0.1,R,mgm-3,1,R,ugm-3,13,R,ugm-3,15,R,ugm-3,,,,3,R,ugm-3
06-01-1999,07:00,0.2,R,mgm-3,4,R,ugm-3,21,R,ugm-3,27,R,ugm-3,,,,3,R,ugm-3
06-01-1999,08:00,0.6,R,mgm-3,16,R,ugm-3,36,R,ugm-3,61,R,ugm-3,,,,3,R,ugm-3
06-01-1999,09:00,1.7,R,mgm-3,53,R,ugm-3,53,R,ugm-3,134,R,ugm-3,,,,5,R,ugm-3
06-01-1999,10:00,1.5,R,mgm-3,34,R,ugm-3,50,R,ugm-3,101,R,ugm-3,,,,5,R,ugm-3
06-01-1999,11:00,1.5,R,mgm-3,25,R,ugm-3,46,R,ugm-3,84,R,ugm-3,,,,3,R,ugm-3
06-01-1999,12:00,1.7,R,mgm-3,31,R,ugm-3,42,R,ugm-3,90,R,ugm-3,,,,3,R,ugm-3
06-01-1999,13:00,2.0,R,mgm-3,34,R,ugm-3,46,R,ugm-3,97,R,ugm-3,,,,5,R,ugm-3
06-01-1999,14:00,1.7,R,mgm-3,28,R,ugm-3,42,R,ugm-3,84,R,ugm-3,,,,5,R,ugm-3
06-01-1999,15:00,2.0,R,mgm-3,24,R,ugm-3,36,R,ugm-3,73,R,ugm-3,,,,3,R,ugm-3
06-01-1999,16:00,2.2,R,mgm-3,33,R,ugm-3,50,R,ugm-3,99,R,ugm-3,,,,3,R,ugm-3
06-01-1999,17:00,2.3,R,mgm-3,41,R,ugm-3,46,R,ugm-3,109,R,ugm-3,,,,3,R,ugm-3
06-01-1999,18:00,3.5,R,mgm-3,66,R,ugm-3,61,R,ugm-3,162,R,ugm-3,,,,3,R,ugm-3
06-01-1999,19:00,2.1,R,mgm-3,31,R,ugm-3,38,R,ugm-3,86,R,ugm-3,,,,3,R,ugm-3
06-01-1999,20:00,1.9,R,mgm-3,21,R,ugm-3,34,R,ugm-3,67,R,ugm-3,,,,3,R,ugm-3
06-01-1999,21:00,2.0,R,mgm-3,26,R,ugm-3,36,R,ugm-3,76,R,ugm-3,,,,3,R,ugm-3
06-01-1999,22:00,1.9,R,mgm-3,21,R,ugm-3,29,R,ugm-3,61,R,ugm-3,,,,3,R,ugm-3
06-01-1999,23:00,1.7,R,mgm-3,20,R,ugm-3,34,R,ugm-3,65,R,ugm-3,,,,3,R,ugm-3
06-01-1999,24:00,1.4,R,mgm-3,8,R,ugm-3,21,R,ugm-3,32,R,ugm-3,,,,3,R,ugm-3
07-01-1999,01:00,0.3,R,mgm-3,8,R,ugm-3,15,R,ugm-3,27,R,ugm-3,,,,3,R,ugm-3
07-01-1999,02:00,0.6,R,mgm-3,6,R,ugm-3,17,R,ugm-3,27,R,ugm-3,,,,3,R,ugm-3
07-01-1999,03:00,0.2,R,mgm-3,3,R,ugm-3,11,R,ugm-3,15,R,ugm-3,,,,3,R,ugm-3
07-01-1999,04:00,0.2,R,mgm-3,0,R,ugm-3,13,R,ugm-3,13,R,ugm-3,,,,3,R,ugm-3
07-01-1999,05:00,0.3,R,mgm-3,8,R,ugm-3,29,R,ugm-3,40,R,ugm-3,,,,3,R,ugm-3
07-01-1999,06:00,0.5,R,mgm-3,15,R,ugm-3,34,R,ugm-3,57,R,ugm-3,,,,3,R,ugm-3
07-01-1999,07:00,0.5,R,mgm-3,23,R,ugm-3,50,R,ugm-3,84,R,ugm-3,,,,3,R,ugm-3
07-01-1999,08:00,0.9,R,mgm-3,51,R,ugm-3,67,R,ugm-3,145,R,ugm-3,,,,3,R,ugm-3
07-01-1999,09:00,,,,,,,,,,,,,,,,,,
07-01-1999,10:00,1.6,R,mgm-3,91,R,ugm-3,82,R,ugm-3,222,R,ugm-3,,,,5,R,ugm-3
07-01-1999,11:00,1.5,R,mgm-3,68,R,ugm-3,74,R,ugm-3,178,R,ugm-3,,,,5,R,ugm-3
07-01-1999,12:00,1.6,R,mgm-3,68,R,ugm-3,69,R,ugm-3,172,R,ugm-3,,,,5,R,ugm-3
07-01-1999,13:00,,,,,,,,,,,,,,,,,,
07-01-1999,14:00,,,,,,,,,,,,,,,,,,
07-01-1999,15:00,1.4,R,mgm-3,30,R,ugm-3,50,R,ugm-3,96,R,ugm-3,,,,3,R,ugm-3
07-01-1999,16:00,1.5,R,mgm-3,33,R,ugm-3,50,R,ugm-3,99,R,ugm-3,,,,3,R,ugm-3
07-01-1999,17:00,1.3,R,mgm-3,26,R,ugm-3,36,R,ugm-3,76,R,ugm-3,,,,3,R,ugm-3
07-01-1999,18:00,1.3,R,mgm-3,21,R,ugm-3,31,R,ugm-3,63,R,ugm-3,,,,3,R,ugm-3
07-01-1999,19:00,0.7,R,mgm-3,9,R,ugm-3,19,R,ugm-3,32,R,ugm-3,,,,3,R,ugm-3
07-01-1999,20:00,0.8,R,mgm-3,8,R,ugm-3,17,R,ugm-3,29,R,ugm-3,,,,3,R,ugm-3
07-01-1999,21:00,0.9,R,mgm-3,15,R,ugm-3,29,R,ugm-3,52,R,ugm-3,,,,3,R,ugm-3
07-01-1999,22:00,0.7,R,mgm-3,6,R,ugm-3,11,R,ugm-3,21,R,ugm-3,,,,3,R,ugm-3
07-01-1999,23:00,0.8,R,mgm-3,6,R,ugm-3,23,R,ugm-3,32,R,ugm-3,,,,3,R,ugm-3
07-01-1999,24:00,1.5,R,mgm-3,41,R,ugm-3,46,R,ugm-3,109,R,ugm-3,,,,3,R,ugm-3
08-01-1999,01:00,0.3,R,mgm-3,6,R,ugm-3,11,R,ugm-3,21,R,ugm-3,,,,0,R,ugm-3
08-01-1999,02:00,0.6,R,mgm-3,6,R,ugm-3,19,R,ugm-3,29,R,ugm-3,,,,3,R,ugm-3
08-01-1999,03:00,0.3,R,mgm-3,0,R,ugm-3,8,R,ugm-3,8,R,ugm-3,,,,0,R,ugm-3
08-01-1999,04:00,0.2,R,mgm-3,0,R,ugm-3,6,R,ugm-3,6,R,ugm-3,,,,0,R,ugm-3
08-01-1999,05:00,0.2,R,mgm-3,0,R,ugm-3,4,R,ugm-3,4,R,ugm-3,,,,0,R,ugm-3
08-01-1999,06:00,0.3,R,mgm-3,4,R,ugm-3,11,R,ugm-3,17,R,ugm-3,,,,0,R,ugm-3
08-01-1999,07:00,0.5,R,mgm-3,16,R,ugm-3,23,R,ugm-3,48,R,ugm-3,,,,0,R,ugm-3
08-01-1999,08:00,0.9,R,mgm-3,28,R,ugm-3,46,R,ugm-3,88,R,ugm-3,,,,3,R,ugm-3
08-01-1999,09:00,1.4,R,mgm-3,58,R,ugm-3,55,R,ugm-3,143,R,ugm-3,,,,3,R,ugm-3
08-01-1999,10:00,0.9,R,mgm-3,51,R,ugm-3,53,R,ugm-3,132,R,ugm-3,,,,3,R,ugm-3
08-01-1999,11:00,0.9,R,mgm-3,40,R,ugm-3,40,R,ugm-3,101,R,ugm-3,,,,3,R,ugm-3
08-01-1999,12:00,0.8,R,mgm-3,33,R,ugm-3,40,R,ugm-3,90,R,ugm-3,,,,3,R,ugm-3
08-01-1999,13:00,0.6,R,mgm-3,14,R,ugm-3,21,R,ugm-3,42,R,ugm-3,,,,3,R,ugm-3
08-01-1999,14:00,0.7,R,mgm-3,15,R,ugm-3,25,R,ugm-3,48,R,ugm-3,,,,3,R,ugm-3
08-01-1999,15:00,0.5,R,mgm-3,9,R,ugm-3,21,R,ugm-3,34,R,ugm-3,,,,3,R,ugm-3
08-01-1999,16:00,0.8,R,mgm-3,11,R,ugm-3,27,R,ugm-3,44,R,ugm-3,,,,0,R,ugm-3
08-01-1999,17:00,1.5,R,mgm-3,35,R,ugm-3,38,R,ugm-3,92,R,ugm-3,,,,3,R,ugm-3
08-01-1999,18:00,3.5,R,mgm-3,110,R,ugm-3,65,R,ugm-3,233,R,ugm-3,,,,5,R,ugm-3
08-01-1999,19:00,2.2,R,mgm-3,73,R,ugm-3,67,R,ugm-3,178,R,ugm-3,,,,5,R,ugm-3
08-01-1999,20:00,1.6,R,mgm-3,66,R,ugm-3,57,R,ugm-3,159,R,ugm-3,,,,5,R,ugm-3
08-01-1999,21:00,1.2,R,mgm-3,68,R,ugm-3,52,R,ugm-3,155,R,ugm-3,,,,5,R,ugm-3
08-01-1999,22:00,1.2,R,mgm-3,61,R,ugm-3,42,R,ugm-3,136,R,ugm-3,,,,3,R,ugm-3
08-01-1999,23:00,0.9,R,mgm-3,39,R,ugm-3,36,R,ugm-3,96,R,ugm-3,,,,3,R,ugm-3
08-01-1999,24:00,0.6,R,mgm-3,28,R,ugm-3,25,R,ugm-3,67,R,ugm-3,,,,3,R,ugm-3
09-01-1999,01:00,0.6,R,mgm-3,10,R,ugm-3,13,R,ugm-3,29,R,ugm-3,,,,3,R,ugm-3
09-01-1999,02:00,0.3,R,mgm-3,6,R,ugm-3,25,R,ugm-3,34,R,ugm-3,,,,3,R,ugm-3
09-01-1999,03:00,0.3,R,mgm-3,4,R,ugm-3,8,R,ugm-3,13,R,ugm-3,,,,3,R,ugm-3
09-01-1999,04:00,0.2,R,mgm-3,0,R,ugm-3,10,R,ugm-3,10,R,ugm-3,,,,3,R,ugm-3
09-01-1999,05:00,0.2,R,mgm-3,0,R,ugm-3,8,R,ugm-3,8,R,ugm-3,,,,3,R,ugm-3
09-01-1999,06:00,0.5,R,mgm-3,14,R,ugm-3,15,R,ugm-3,36,R,ugm-3,,,,3,R,ugm-3
09-01-1999,07:00,0.5,R,mgm-3,39,R,ugm-3,29,R,ugm-3,88,R,ugm-3,,,,3,R,ugm-3
09-01-1999,08:00,0.7,R,mgm-3,31,R,ugm-3,34,R,ugm-3,82,R,ugm-3,,,,3,R,ugm-3
09-01-1999,09:00,1.3,R,mgm-3,76,R,ugm-3,46,R,ugm-3,162,R,ugm-3,,,,5,R,ugm-3
09-01-1999,10:00,1.6,R,mgm-3,78,R,ugm-3,50,R,ugm-3,168,R,ugm-3,,,,5,R,ugm-3
09-01-1999,11:00,2.6,R,mgm-3,136,R,ugm-3,53,R,ugm-3,262,R,ugm-3,,,,13,R,ugm-3
09-01-1999,12:00,2.4,R,mgm-3,138,R,ugm-3,57,R,ugm-3,267,R,ugm-3,,,,11,R,ugm-3
09-01-1999,13:00,2.4,R,mgm-3,101,R,ugm-3,52,R,ugm-3,206,R,ugm-3,,,,11,R,ugm-3
09-01-1999,14:00,3.7,R,mgm-3,165,R,ugm-3,69,R,ugm-3,321,R,ugm-3,,,,13,R,ugm-3
09-01-1999,15:00,3.5,R,mgm-3,178,R,ugm-3,69,R,ugm-3,340,R,ugm-3,,,,13,R,ugm-3
09-01-1999,16:00,5.0,R,mgm-3,246,R,ugm-3,82,R,ugm-3,458,R,ugm-3,,,,16,R,ugm-3
09-01-1999,17:00,5.5,R,mgm-3,263,R,ugm-3,80,R,ugm-3,481,R,ugm-3,,,,16,R,ugm-3
09-01-1999,18:00,4.2,R,mgm-3,230,R,ugm-3,69,R,ugm-3,420,R,ugm-3,,,,16,R,ugm-3
09-01-1999,19:00,2.9,R,mgm-3,118,R,ugm-3,67,R,ugm-3,246,R,ugm-3,,,,11,R,ugm-3
09-01-1999,20:00,2.6,R,mgm-3,86,R,ugm-3,57,R,ugm-3,189,R,ugm-3,,,,8,R,ugm-3
09-01-1999,21:00,1.4,R,mgm-3,115,R,ugm-3,63,R,ugm-3,239,R,ugm-3,,,,11,R,ugm-3
09-01-1999,22:00,2.1,R,mgm-3,98,R,ugm-3,61,R,ugm-3,210,R,ugm-3,,,,8,R,ugm-3
09-01-1999,23:00,2.0,R,mgm-3,111,R,ugm-3,53,R,ugm-3,223,R,ugm-3,,,,8,R,ugm-3
09-01-1999,24:00,1.6,R,mgm-3,88,R,ugm-3,44,R,ugm-3,178,R,ugm-3,,,,11,R,ugm-3
10-01-1999,01:00,1.6,R,mgm-3,79,R,ugm-3,36,R,ugm-3,157,R,ugm-3,,,,8,R,ugm-3
10-01-1999,02:00,1.2,R,mgm-3,58,R,ugm-3,46,R,ugm-3,134,R,ugm-3,,,,5,R,ugm-3
10-01-1999,03:00,0.8,R,mgm-3,24,R,ugm-3,38,R,ugm-3,74,R,ugm-3,,,,5,R,ugm-3
10-01-1999,04:00,0.2,R,mgm-3,8,R,ugm-3,27,R,ugm-3,38,R,ugm-3,,,,3,R,ugm-3
10-01-1999,05:00,0.2,R,mgm-3,5,R,ugm-3,23,R,ugm-3,31,R,ugm-3,,,,3,R,ugm-3
10-01-1999,06:00,0.3,R,mgm-3,8,R,ugm-3,27,R,ugm-3,38,R,ugm-3,,,,3,R,ugm-3
10-01-1999,07:00,0.3,R,mgm-3,8,R,ugm-3,23,R,ugm-3,34,R,ugm-3,,,,3,R,ugm-3
10-01-1999,08:00,0.8,R,mgm-3,43,R,ugm-3,38,R,ugm-3,103,R,ugm-3,,,,3,R,ugm-3
10-01-1999,09:00,1.0,R,mgm-3,74,R,ugm-3,46,R,ugm-3,159,R,ugm-3,,,,5,R,ugm-3
10-01-1999,10:00,1.4,R,mgm-3,965,R,ugm-3,151,R,ugm-3,1625,R,ugm-3,,,,37,R,ugm-3
10-01-1999,11:00,2.0,R,mgm-3,115,R,ugm-3,48,R,ugm-3,223,R,ugm-3,,,,11,R,ugm-3
10-01-1999,12:00,2.2,R,mgm-3,111,R,ugm-3,44,R,ugm-3,214,R,ugm-3,,,,13,R,ugm-3
10-01-1999,13:00,2.3,R,mgm-3,134,R,ugm-3,52,R,ugm-3,256,R,ugm-3,,,,13,R,ugm-3
10-01-1999,14:00,2.4,R,mgm-3,154,R,ugm-3,48,R,ugm-3,283,R,ugm-3,,,,13,R,ugm-3
10-01-1999,15:00,2.3,R,mgm-3,139,R,ugm-3,52,R,ugm-3,264,R,ugm-3,,,,13,R,ugm-3
10-01-1999,16:00,3.9,R,mgm-3,226,R,ugm-3,63,R,ugm-3,409,R,ugm-3,,,,13,R,ugm-3
10-01-1999,17:00,3.2,R,mgm-3,174,R,ugm-3,61,R,ugm-3,327,R,ugm-3,,,,13,R,ugm-3
10-01-1999,18:00,2.3,R,mgm-3,128,R,ugm-3,53,R,ugm-3,248,R,ugm-3,,,,8,R,ugm-3
10-01-1999,19:00,2.3,R,mgm-3,96,R,ugm-3,52,R,ugm-3,199,R,ugm-3,,,,8,R,ugm-3
10-01-1999,20:00,1.3,R,mgm-3,53,R,ugm-3,32,R,ugm-3,113,R,ugm-3,,,,5,R,ugm-3
10-01-1999,21:00,1.0,R,mgm-3,51,R,ugm-3,36,R,ugm-3,115,R,ugm-3,,,,5,R,ugm-3
10-01-1999,22:00,1.0,R,mgm-3,40,R,ugm-3,34,R,ugm-3,96,R,ugm-3,,,,8,R,ugm-3
10-01-1999,23:00,0.8,R,mgm-3,36,R,ugm-3,40,R,ugm-3,96,R,ugm-3,,,,8,R,ugm-3
10-01-1999,24:00,0.6,R,mgm-3,16,R,ugm-3,34,R,ugm-3,59,R,ugm-3,,,,8,R,ugm-3
11-01-1999,01:00,0.6,R,mgm-3,13,R,ugm-3,29,R,ugm-3,48,R,ugm-3,,,,11,R,ugm-3
11-01-1999,02:00,0.3,R,mgm-3,3,R,ugm-3,36,R,ugm-3,40,R,ugm-3,,,,16,R,ugm-3
11-01-1999,03:00,0.3,R,mgm-3,0,R,ugm-3,25,R,ugm-3,25,R,ugm-3,,,,19,R,ugm-3
11-01-1999,04:00,0.5,R,mgm-3,0,R,ugm-3,19,R,ugm-3,19,R,ugm-3,,,,13,R,ugm-3
11-01-1999,05:00,0.3,R,mgm-3,3,R,ugm-3,13,R,ugm-3,17,R,ugm-3,,,,11,R,ugm-3
11-01-1999,06:00,0.8,R,mgm-3,36,R,ugm-3,32,R,ugm-3,88,R,ugm-3,,,,16,R,ugm-3
11-01-1999,07:00,0.6,R,mgm-3,48,R,ugm-3,53,R,ugm-3,126,R,ugm-3,,,,13,R,ugm-3
11-01-1999,08:00,1.3,R,mgm-3,130,R,ugm-3,63,R,ugm-3,262,R,ugm-3,,,,16,R,ugm-3
11-01-1999,09:00,2.8,R,mgm-3,238,R,ugm-3,65,R,ugm-3,428,R,ugm-3,,,,19,R,ugm-3
11-01-1999,10:00,3.0,R,mgm-3,160,R,ugm-3,67,R,ugm-3,311,R,ugm-3,,,,16,R,ugm-3
11-01-1999,11:00,2.2,R,mgm-3,178,R,ugm-3,59,R,ugm-3,330,R,ugm-3,,,,21,R,ugm-3
11-01-1999,12:00,2.2,R,mgm-3,153,R,ugm-3,78,R,ugm-3,311,R,ugm-3,,,,21,R,ugm-3
11-01-1999,13:00,2.7,R,mgm-3,179,R,ugm-3,73,R,ugm-3,346,R,ugm-3,,,,27,R,ugm-3
11-01-1999,14:00,2.8,R,mgm-3,169,R,ugm-3,80,R,ugm-3,338,R,ugm-3,,,,37,R,ugm-3
11-01-1999,15:00,2.9,R,mgm-3,168,R,ugm-3,84,R,ugm-3,340,R,ugm-3,,,,35,R,ugm-3
11-01-1999,16:00,4.4,R,mgm-3,259,R,ugm-3,88,R,ugm-3,483,R,ugm-3,,,,43,R,ugm-3
11-01-1999,17:00,5.7,R,mgm-3,320,R,ugm-3,94,R,ugm-3,583,R,ugm-3,,,,37,R,ugm-3
11-01-1999,18:00,10.8,R,mgm-3,483,R,ugm-3,107,R,ugm-3,844,R,ugm-3,,,,40,R,ugm-3
11-01-1999,19:00,7.2,R,mgm-3,351,R,ugm-3,94,R,ugm-3,630,R,ugm-3,,,,35,R,ugm-3
11-01-1999,20:00,4.5,R,mgm-3,299,R,ugm-3,78,R,ugm-3,535,R,ugm-3,,,,29,R,ugm-3
11-01-1999,21:00,4.8,R,mgm-3,381,R,ugm-3,97,R,ugm-3,680,R,ugm-3,,,,32,R,ugm-3
11-01-1999,22:00,6.1,R,mgm-3,441,R,ugm-3,84,R,ugm-3,758,R,ugm-3,,,,29,R,ugm-3
11-01-1999,23:00,4.6,R,mgm-3,411,R,ugm-3,86,R,ugm-3,714,R,ugm-3,,,,29,R,ugm-3
11-01-1999,24:00,2.6,R,mgm-3,231,R,ugm-3,71,R,ugm-3,424,R,ugm-3,,,,19,R,ugm-3
12-01-1999,01:00,3.5,R,mgm-3,248,R,ugm-3,63,R,ugm-3,441,R,ugm-3,,,,19,R,ugm-3
12-01-1999,02:00,1.5,R,mgm-3,140,R,ugm-3,78,R,ugm-3,292,R,ugm-3,,,,16,R,ugm-3
12-01-1999,03:00,0.9,R,mgm-3,59,R,ugm-3,63,R,ugm-3,153,R,ugm-3,,,,11,R,ugm-3
12-01-1999,04:00,0.5,R,mgm-3,6,R,ugm-3,44,R,ugm-3,53,R,ugm-3,,,,8,R,ugm-3
12-01-1999,05:00,0.5,R,mgm-3,4,R,ugm-3,27,R,ugm-3,32,R,ugm-3,,,,5,R,ugm-3
12-01-1999,06:00,0.6,R,mgm-3,8,R,ugm-3,38,R,ugm-3,50,R,ugm-3,,,,3,R,ugm-3
12-01-1999,07:00,0.5,R,mgm-3,9,R,ugm-3,23,R,ugm-3,36,R,ugm-3,,,,3,R,ugm-3
12-01-1999,08:00,0.8,R,mgm-3,16,R,ugm-3,32,R,ugm-3,57,R,ugm-3,,,,3,R,ugm-3
12-01-1999,09:00,1.2,R,mgm-3,26,R,ugm-3,34,R,ugm-3,74,R,ugm-3,,,,3,R,ugm-3
12-01-1999,10:00,0.8,R,mgm-3,18,R,ugm-3,34,R,ugm-3,61,R,ugm-3,,,,3,R,ugm-3
12-01-1999,11:00,0.8,R,mgm-3,16,R,ugm-3,34,R,ugm-3,59,R,ugm-3,,,,3,R,ugm-3
12-01-1999,12:00,0.9,R,mgm-3,26,R,ugm-3,31,R,ugm-3,71,R,ugm-3,,,,3,R,ugm-3
12-01-1999,13:00,1.3,R,mgm-3,45,R,ugm-3,42,R,ugm-3,111,R,ugm-3,,,,3,R,ugm-3
12-01-1999,14:00,,,,,,,,,,,,,,,,,,
12-01-1999,15:00,1.7,R,mgm-3,44,R,ugm-3,50,R,ugm-3,117,R,ugm-3,,,,3,R,ugm-3
12-01-1999,16:00,,,,,,,,,,,,,,,,,,
12-01-1999,17:00,2.3,R,mgm-3,66,R,ugm-3,57,R,ugm-3,159,R,ugm-3,,,,3,R,ugm-3
12-01-1999,18:00,2.3,R,mgm-3,53,R,ugm-3,53,R,ugm-3,134,R,ugm-3,,,,3,R,ugm-3
12-01-1999,19:00,1.4,R,mgm-3,31,R,ugm-3,42,R,ugm-3,90,R,ugm-3,,,,3,R,ugm-3
12-01-1999,20:00,0.6,R,mgm-3,14,R,ugm-3,34,R,ugm-3,55,R,ugm-3,,,,3,R,ugm-3
12-01-1999,21:00,0.8,R,mgm-3,16,R,ugm-3,36,R,ugm-3,61,R,ugm-3,,,,3,R,ugm-3
12-01-1999,22:00,0.8,R,mgm-3,16,R,ugm-3,23,R,ugm-3,48,R,ugm-3,,,,3,R,ugm-3
12-01-1999,23:00,0.6,R,mgm-3,9,R,ugm-3,19,R,ugm-3,32,R,ugm-3,,,,3,R,ugm-3
12-01-1999,24:00,0.3,R,mgm-3,8,R,ugm-3,11,R,ugm-3,23,R,ugm-3,,,,3,R,ugm-3
13-01-1999,01:00,0.3,R,mgm-3,0,R,ugm-3,8,R,ugm-3,8,R,ugm-3,,,,3,R,ugm-3
13-01-1999,02:00,0.3,R,mgm-3,0,R,ugm-3,13,R,ugm-3,13,R,ugm-3,,,,3,R,ugm-3
13-01-1999,03:00,0.2,R,mgm-3,0,R,ugm-3,13,R,ugm-3,13,R,ugm-3,,,,3,R,ugm-3
13-01-1999,04:00,0.2,R,mgm-3,0,R,ugm-3,10,R,ugm-3,10,R,ugm-3,,,,3,R,ugm-3
13-01-1999,05:00,0.2,R,mgm-3,0,R,ugm-3,10,R,ugm-3,10,R,ugm-3,,,,3,R,ugm-3
13-01-1999,06:00,0.3,R,mgm-3,4,R,ugm-3,21,R,ugm-3,27,R,ugm-3,,,,3,R,ugm-3
13-01-1999,07:00,0.6,R,mgm-3,14,R,ugm-3,34,R,ugm-3,55,R,ugm-3,,,,3,R,ugm-3
13-01-1999,08:00,1.0,R,mgm-3,53,R,ugm-3,50,R,ugm-3,130,R,ugm-3,,,,3,R,ugm-3
13-01-1999,09:00,2.6,R,mgm-3,135,R,ugm-3,84,R,ugm-3,290,R,ugm-3,,,,8,R,ugm-3
13-01-1999,10:00,1.7,R,mgm-3,81,R,ugm-3,73,R,ugm-3,197,R,ugm-3,,,,5,R,ugm-3
13-01-1999,11:00,,,,,,,,,,,,,,,,,,
13-01-1999,12:00,,,,,,,,,,,,,,,,,,
13-01-1999,13:00,,,,,,,,,,,,,,,,,,
13-01-1999,14:00,,,,,,,,,,,,,,,,,,
13-01-1999,15:00,,,,,,,,,,,,,,,,,,
13-01-1999,16:00,,,,,,,,,,,,,,,,,,
13-01-1999,17:00,,,,,,,,,,,,,,,,,,
13-01-1999,18:00,2.1,R,mgm-3,,,,,,,,,,,,,3,R,ugm-3
13-01-1999,19:00,1.4,R,mgm-3,15,R,ugm-3,31,R,ugm-3,53,R,ugm-3,,,,3,R,ugm-3
13-01-1999,20:00,1.2,R,mgm-3,15,R,ugm-3,21,R,ugm-3,44,R,ugm-3,,,,3,R,ugm-3
13-01-1999,21:00,1.5,R,mgm-3,19,R,ugm-3,27,R,ugm-3,55,R,ugm-3,,,,3,R,ugm-3
13-01-1999,22:00,1.3,R,mgm-3,15,R,ugm-3,27,R,ugm-3,50,R,ugm-3,,,,3,R,ugm-3
13-01-1999,23:00,1.0,R,mgm-3,4,R,ugm-3,13,R,ugm-3,19,R,ugm-3,,,,3,R,ugm-3
13-01-1999,24:00,0.9,R,mgm-3,4,R,ugm-3,10,R,ugm-3,15,R,ugm-3,,,,3,R,ugm-3
14-01-1999,01:00,0.2,R,mgm-3,0,R,ugm-3,6,R,ugm-3,6,R,ugm-3,,,,0,R,ugm-3
14-01-1999,02:00,0.1,R,mgm-3,3,R,ugm-3,11,R,ugm-3,15,R,ugm-3,,,,0,R,ugm-3
14-01-1999,03:00,0.1,R,mgm-3,0,R,ugm-3,8,R,ugm-3,8,R,ugm-3,,,,0,R,ugm-3
14-01-1999,04:00,0.1,R,mgm-3,0,R,ugm-3,6,R,ugm-3,6,R,ugm-3,,,,0,R,ugm-3
14-01-1999,05:00,0.1,R,mgm-3,0,R,ugm-3,10,R,ugm-3,10,R,ugm-3,,,,0,R,ugm-3
14-01-1999,06:00,0.2,R,mgm-3,1,R,ugm-3,11,R,ugm-3,13,R,ugm-3,,,,0,R,ugm-3
14-01-1999,07:00,0.2,R,mgm-3,6,R,ugm-3,21,R,ugm-3,31,R,ugm-3,,,,0,R,ugm-3
14-01-1999,08:00,0.3,R,mgm-3,9,R,ugm-3,25,R,ugm-3,38,R,ugm-3,,,,3,R,ugm-3
14-01-1999,09:00,0.7,R,mgm-3,15,R,ugm-3,34,R,ugm-3,57,R,ugm-3,,,,3,R,ugm-3
14-01-1999,10:00,1.4,R,mgm-3,61,R,ugm-3,53,R,ugm-3,147,R,ugm-3,,,,3,R,ugm-3